Вернуться в каталог

STARLINK-30079

АктивенСвязьVLEO
NORAD 56706·PAYLOAD·🇺🇸 United States

Запущен May 19, 2023 с Cape Canaveral Space Force Station

Loading…

Ближайшие Пролёты (ближайшие 24 часа)

TLE

СвежийSource: CelesTrak SupGP

Эпоха: Sep 15, 2026, 02:47 UTC

1 56706C 23067U   26258.11645833  .00012303  00000+0  44572-3 0  2587
2 56706  43.0027 291.6045 0001562 251.0611 311.1803 15.27564121    11

Отслеживайте STARLINK-30079 в реальном времени с AllMySat

Download on the App Store